CMP261 TBPB-MPTO

Flight info

Callsign CMP261
Flight time 3h 2m
Altitude 36000
Route BGI UA511 SV DCT VUDAL DCT OGREK DCT AVELO DCT DOLPO DCT AKNIL DCT LOLUD DCT BOGAL DCT PONPO DCT OVTUL
Aircraft B38M/M-SDE1FGHILORVWXY/HB1

Departure

Time 2026-05-06 18:11
Airport Grantley Adams International Airport (TBPB)

Arrival

Time 2026-05-06 21:13
Airport Tocumen International Airport (MPTO)
Time Latitude Longitude Altitude Speed Heading
2026-05-06 17:34 13.07913 -59.48624 180 ft 0 kts 346°
2026-05-06 17:58 13.07896 -59.48620 180 ft 4 kts 346°
2026-05-06 17:58 13.07870 -59.48613 180 ft 4 kts 346°
2026-05-06 17:58 13.07848 -59.48607 180 ft 4 kts 334°
2026-05-06 17:59 13.07829 -59.48590 180 ft 4 kts 300°
2026-05-06 17:59 13.07821 -59.48565 180 ft 4 kts 273°
2026-05-06 17:59 13.07823 -59.48539 180 ft 2 kts 256°
2026-05-06 17:59 13.07823 -59.48538 180 ft 0 kts 256°
2026-05-06 18:03 13.07823 -59.48539 180 ft 1 kts 256°
2026-05-06 18:03 13.07817 -59.48561 180 ft 5 kts 256°
2026-05-06 18:03 13.07812 -59.48585 180 ft 0 kts 256°
2026-05-06 18:04 13.07811 -59.48586 180 ft 1 kts 256°
2026-05-06 18:04 13.07803 -59.48619 180 ft 9 kts 256°
2026-05-06 18:04 13.07787 -59.48687 180 ft 11 kts 256°
2026-05-06 18:04 13.07753 -59.48758 180 ft 12 kts 229°
2026-05-06 18:05 13.07720 -59.48840 180 ft 13 kts 257°
2026-05-06 18:05 13.07697 -59.48932 180 ft 14 kts 256°
2026-05-06 18:05 13.07672 -59.49033 180 ft 15 kts 256°
2026-05-06 18:05 13.07646 -59.49142 180 ft 17 kts 256°
2026-05-06 18:06 13.07616 -59.49261 180 ft 18 kts 255°
2026-05-06 18:06 13.07585 -59.49388 180 ft 19 kts 257°
2026-05-06 18:06 13.07552 -59.49526 180 ft 21 kts 256°
2026-05-06 18:06 13.07517 -59.49672 180 ft 22 kts 256°
2026-05-06 18:07 13.07481 -59.49823 180 ft 23 kts 256°
2026-05-06 18:07 13.07453 -59.49940 180 ft 16 kts 257°
2026-05-06 18:07 13.07440 -59.49994 180 ft 7 kts 252°
2026-05-06 18:07 13.07424 -59.50049 180 ft 9 kts 254°
2026-05-06 18:08 13.07410 -59.50115 180 ft 10 kts 257°
2026-05-06 18:08 13.07392 -59.50192 180 ft 12 kts 257°
2026-05-06 18:08 13.07370 -59.50278 180 ft 13 kts 255°
2026-05-06 18:08 13.07345 -59.50374 180 ft 15 kts 255°
2026-05-06 18:09 13.07320 -59.50479 181 ft 16 kts 256°
2026-05-06 18:09 13.07292 -59.50593 180 ft 17 kts 255°
2026-05-06 18:09 13.07258 -59.50711 180 ft 14 kts 239°
2026-05-06 18:09 13.07169 -59.50715 180 ft 14 kts 165°
2026-05-06 18:10 13.07110 -59.50657 180 ft 13 kts 76°
2026-05-06 18:10 13.07143 -59.50517 180 ft 45 kts 75°
2026-05-06 18:10 13.07282 -59.49953 181 ft 116 kts 75°
2026-05-06 18:10 13.07524 -59.48947 217 ft 168 kts 78°
2026-05-06 18:11 13.07798 -59.47740 811 ft 180 kts 85°
2026-05-06 18:11 13.07451 -59.46491 1607 ft 191 kts 125°
2026-05-06 18:11 13.06272 -59.45749 2307 ft 219 kts 161°
2026-05-06 18:11 13.04613 -59.45719 2694 ft 257 kts 190°
2026-05-06 18:12 13.02956 -59.46515 3583 ft 270 kts 214°
2026-05-06 18:12 13.01744 -59.48036 4375 ft 287 kts 247°
2026-05-06 18:12 13.01484 -59.50041 5415 ft 287 kts 278°
2026-05-06 18:12 13.01847 -59.52040 6385 ft 290 kts 275°
2026-05-06 18:13 13.01992 -59.54125 7220 ft 296 kts 272°
2026-05-06 18:13 13.02121 -59.56242 8158 ft 296 kts 272°
2026-05-06 18:13 13.02268 -59.58371 8990 ft 304 kts 272°
2026-05-06 18:13 13.02419 -59.60534 9919 ft 305 kts 273°
2026-05-06 18:14 13.02581 -59.62739 10507 ft 318 kts 273°
2026-05-06 18:14 13.02740 -59.65073 10885 ft 337 kts 274°
2026-05-06 18:14 13.02908 -59.67520 11384 ft 350 kts 275°
2026-05-06 18:14 13.03080 -59.70023 12172 ft 350 kts 275°
2026-05-06 18:15 13.03263 -59.72482 12962 ft 353 kts 276°
2026-05-06 18:15 13.03450 -59.75011 13659 ft 357 kts 276°
2026-05-06 18:15 13.03640 -59.77567 14324 ft 360 kts 276°
2026-05-06 18:15 13.03829 -59.80134 14966 ft 363 kts 276°
2026-05-06 18:16 13.04021 -59.82720 15613 ft 365 kts 276°
2026-05-06 18:16 13.04215 -59.85335 16212 ft 369 kts 276°
2026-05-06 18:16 13.04408 -59.87969 16847 ft 370 kts 275°
2026-05-06 18:16 13.04603 -59.90600 17527 ft 371 kts 275°
2026-05-06 18:17 13.04797 -59.93259 18154 ft 373 kts 274°
2026-05-06 18:17 13.04993 -59.95910 18729 ft 374 kts 274°
2026-05-06 18:17 13.05188 -59.98580 19239 ft 376 kts 274°
2026-05-06 18:17 13.05385 -60.01255 19782 ft 377 kts 274°
2026-05-06 18:18 13.05580 -60.03907 20298 ft 378 kts 274°
2026-05-06 18:18 13.05777 -60.06595 20778 ft 380 kts 274°
2026-05-06 18:18 13.05975 -60.09296 21284 ft 381 kts 274°
2026-05-06 18:18 13.06173 -60.12016 21766 ft 383 kts 274°
2026-05-06 18:19 13.06371 -60.14741 22284 ft 383 kts 274°
2026-05-06 18:19 13.06572 -60.17476 22719 ft 386 kts 274°
2026-05-06 18:19 13.06771 -60.20213 23263 ft 385 kts 274°
2026-05-06 18:19 13.06976 -60.22969 23609 ft 390 kts 274°
2026-05-06 18:20 13.07175 -60.25758 23963 ft 391 kts 274°
2026-05-06 18:20 13.07380 -60.28556 24240 ft 396 kts 274°
2026-05-06 18:20 13.07580 -60.31366 24643 ft 395 kts 274°
2026-05-06 18:20 13.07788 -60.34189 24972 ft 398 kts 274°
2026-05-06 18:21 13.07993 -60.37026 25332 ft 400 kts 274°
2026-05-06 18:21 13.08199 -60.39871 25653 ft 403 kts 274°
2026-05-06 18:21 13.08406 -60.42747 26002 ft 404 kts 274°
2026-05-06 18:21 13.08615 -60.45637 26254 ft 409 kts 274°
2026-05-06 18:22 13.08822 -60.48539 26663 ft 408 kts 274°
2026-05-06 18:22 13.09029 -60.51415 26981 ft 410 kts 274°
2026-05-06 18:22 13.09242 -60.54366 27358 ft 411 kts 274°
2026-05-06 18:22 13.09453 -60.57311 27601 ft 415 kts 274°
2026-05-06 18:23 13.09664 -60.60256 27941 ft 416 kts 274°
2026-05-06 18:23 13.09873 -60.63195 28189 ft 420 kts 274°
2026-05-06 18:23 13.10086 -60.66179 28553 ft 420 kts 274°
2026-05-06 18:23 13.10300 -60.69180 28865 ft 421 kts 274°
2026-05-06 18:24 13.10515 -60.72181 29146 ft 424 kts 274°
2026-05-06 18:24 13.10729 -60.75212 29413 ft 426 kts 274°
2026-05-06 18:24 13.10945 -60.78255 29655 ft 430 kts 274°
2026-05-06 18:24 13.11162 -60.81312 29998 ft 430 kts 274°
2026-05-06 18:25 13.11378 -60.84373 30239 ft 432 kts 274°
2026-05-06 18:25 13.11596 -60.87451 30481 ft 434 kts 274°
2026-05-06 18:25 13.11740 -60.89502 30608 ft 436 kts 274°
2026-05-06 18:25 13.12034 -60.93665 30896 ft 438 kts 273°
2026-05-06 18:26 13.12178 -60.95733 31061 ft 439 kts 273°
2026-05-06 18:26 13.12398 -60.98857 31315 ft 440 kts 273°
2026-05-06 18:26 13.12618 -61.01987 31581 ft 440 kts 273°
2026-05-06 18:26 13.12839 -61.05136 31730 ft 444 kts 273°
2026-05-06 18:27 13.13060 -61.08304 31946 ft 446 kts 273°
2026-05-06 18:27 13.13281 -61.11475 32139 ft 448 kts 273°
2026-05-06 18:27 13.13503 -61.14661 32377 ft 449 kts 273°
2026-05-06 18:27 13.13726 -61.17868 32612 ft 450 kts 273°
2026-05-06 18:28 13.13895 -61.21068 32776 ft 452 kts 266°
2026-05-06 18:28 13.13399 -61.24243 32988 ft 451 kts 253°
2026-05-06 18:28 13.12505 -61.27328 33217 ft 451 kts 253°
2026-05-06 18:28 13.11608 -61.30376 33480 ft 451 kts 252°
2026-05-06 18:29 13.10680 -61.33448 33736 ft 451 kts 252°
2026-05-06 18:29 13.09740 -61.36506 34039 ft 450 kts 252°
2026-05-06 18:29 13.08796 -61.39557 34314 ft 448 kts 252°
2026-05-06 18:29 13.07851 -61.42598 34550 ft 448 kts 252°
2026-05-06 18:30 13.06905 -61.45641 34804 ft 446 kts 252°
2026-05-06 18:30 13.05966 -61.48661 35088 ft 444 kts 252°
2026-05-06 18:30 13.05025 -61.51684 35297 ft 444 kts 252°
2026-05-06 18:30 13.04089 -61.54689 35539 ft 443 kts 252°
2026-05-06 18:31 13.03150 -61.57706 35783 ft 442 kts 252°
2026-05-06 18:31 13.02215 -61.60704 35975 ft 442 kts 252°
2026-05-06 18:31 13.00354 -61.66672 36021 ft 440 kts 252°
2026-05-06 18:32 12.98493 -61.72633 36041 ft 440 kts 252°
2026-05-06 18:32 12.96628 -61.78604 36017 ft 439 kts 252°
2026-05-06 18:33 12.94764 -61.84565 36020 ft 439 kts 252°
2026-05-06 18:33 12.92894 -61.90539 36024 ft 440 kts 252°
2026-05-06 18:34 12.91026 -61.96504 36019 ft 439 kts 252°
2026-05-06 18:34 12.89156 -62.02469 36019 ft 439 kts 252°
2026-05-06 18:35 12.87287 -62.08424 36020 ft 440 kts 252°
2026-05-06 18:35 12.85415 -62.14386 36015 ft 439 kts 252°
2026-05-06 18:36 12.83538 -62.20357 36015 ft 439 kts 252°
2026-05-06 18:36 12.81664 -62.26316 36015 ft 439 kts 252°
2026-05-06 18:37 12.79798 -62.32240 36013 ft 439 kts 252°
2026-05-06 18:37 12.77925 -62.38186 36015 ft 439 kts 252°
2026-05-06 18:38 12.76044 -62.44149 36017 ft 439 kts 252°
2026-05-06 18:38 12.74163 -62.50109 36014 ft 439 kts 252°
2026-05-06 18:39 12.72292 -62.56031 36016 ft 439 kts 252°
2026-05-06 18:40 12.69481 -62.64916 36016 ft 439 kts 252°
2026-05-06 18:40 12.67595 -62.70874 36006 ft 440 kts 252°
2026-05-06 18:41 12.65705 -62.76840 36013 ft 440 kts 252°
2026-05-06 18:41 12.63813 -62.82804 36012 ft 440 kts 252°
2026-05-06 18:42 12.61932 -62.88730 36012 ft 440 kts 252°
2026-05-06 18:42 12.60037 -62.94696 36012 ft 440 kts 252°
2026-05-06 18:43 12.58145 -63.00646 36014 ft 440 kts 252°
2026-05-06 18:43 12.56250 -63.06600 36013 ft 440 kts 252°
2026-05-06 18:44 12.54353 -63.12558 36010 ft 440 kts 252°
2026-05-06 18:44 12.52466 -63.18475 36011 ft 439 kts 252°
2026-05-06 18:45 12.50571 -63.24419 36009 ft 439 kts 252°
2026-05-06 18:45 12.48674 -63.30360 36007 ft 439 kts 252°
2026-05-06 18:46 12.46777 -63.36300 36010 ft 439 kts 252°
2026-05-06 18:46 12.45056 -63.42293 36010 ft 438 kts 257°
2026-05-06 18:47 12.43645 -63.48370 35995 ft 439 kts 256°
2026-05-06 18:47 12.42195 -63.54439 36006 ft 440 kts 256°
2026-05-06 18:48 12.40737 -63.60516 36002 ft 440 kts 256°
2026-05-06 18:48 12.39278 -63.66588 36005 ft 440 kts 256°
2026-05-06 18:49 12.37817 -63.72662 36008 ft 440 kts 256°
2026-05-06 18:49 12.36355 -63.78731 36000 ft 438 kts 256°
2026-05-06 18:50 12.34906 -63.84743 36001 ft 438 kts 256°
2026-05-06 18:50 12.33447 -63.90787 36003 ft 438 kts 256°
2026-05-06 18:51 12.31985 -63.96844 36004 ft 438 kts 256°
2026-05-06 18:51 12.30522 -64.02891 35999 ft 438 kts 256°
2026-05-06 18:52 12.29060 -64.08934 35998 ft 436 kts 256°
2026-05-06 18:52 12.27603 -64.14945 35999 ft 435 kts 256°
2026-05-06 18:53 12.26147 -64.20951 35999 ft 435 kts 256°
2026-05-06 18:53 12.24688 -64.26960 35999 ft 435 kts 256°
2026-05-06 18:54 12.23238 -64.32925 35997 ft 435 kts 256°
2026-05-06 18:54 12.21774 -64.38943 35998 ft 435 kts 256°
2026-05-06 18:55 12.20315 -64.44938 35992 ft 435 kts 256°
2026-05-06 18:55 12.18846 -64.50961 35993 ft 436 kts 256°
2026-05-06 18:56 12.17391 -64.56927 35995 ft 436 kts 256°
2026-05-06 18:56 12.15923 -64.62936 35993 ft 436 kts 256°
2026-05-06 18:57 12.14454 -64.68943 35995 ft 436 kts 256°
2026-05-06 18:57 12.12982 -64.74960 35991 ft 436 kts 256°
2026-05-06 18:58 12.11513 -64.80959 35986 ft 436 kts 256°
2026-05-06 18:58 12.10039 -64.86970 35987 ft 435 kts 256°
2026-05-06 18:59 12.08571 -64.92947 35988 ft 436 kts 256°
2026-05-06 18:59 12.07098 -64.98946 35988 ft 435 kts 256°
2026-05-06 19:00 12.05624 -65.04936 35987 ft 434 kts 256°
2026-05-06 19:00 12.04151 -65.10921 35990 ft 434 kts 256°
2026-05-06 19:01 12.02674 -65.16918 35992 ft 434 kts 256°
2026-05-06 19:01 12.01197 -65.22903 35985 ft 434 kts 256°
2026-05-06 19:02 11.99721 -65.28881 35985 ft 434 kts 256°
2026-05-06 19:02 11.98253 -65.34823 35985 ft 433 kts 256°
2026-05-06 19:03 11.96773 -65.40804 35980 ft 435 kts 256°
2026-05-06 19:03 11.95285 -65.46813 35983 ft 437 kts 256°
2026-05-06 19:04 11.93796 -65.52824 35986 ft 436 kts 256°
2026-05-06 19:04 11.92308 -65.58820 35981 ft 436 kts 256°
2026-05-06 19:05 11.90817 -65.64826 35983 ft 436 kts 256°
2026-05-06 19:05 11.89325 -65.70832 35983 ft 436 kts 256°
2026-05-06 19:06 11.87842 -65.76797 35981 ft 436 kts 256°
2026-05-06 19:06 11.86592 -65.82841 35989 ft 436 kts 259°
2026-05-06 19:07 11.85378 -65.88911 35984 ft 436 kts 258°
2026-05-06 19:07 11.84156 -65.94976 35982 ft 436 kts 258°
2026-05-06 19:08 11.82933 -66.01037 35976 ft 435 kts 258°
2026-05-06 19:08 11.81712 -66.07085 35977 ft 435 kts 258°
2026-05-06 19:09 11.80488 -66.13134 35981 ft 435 kts 258°
2026-05-06 19:09 11.79264 -66.19183 35982 ft 435 kts 258°
2026-05-06 19:10 11.78045 -66.25198 35982 ft 435 kts 258°
2026-05-06 19:10 11.76821 -66.31233 35979 ft 435 kts 258°
2026-05-06 19:11 11.75592 -66.37283 35980 ft 435 kts 258°
2026-05-06 19:11 11.74361 -66.43335 35978 ft 435 kts 258°
2026-05-06 19:12 11.73128 -66.49389 35971 ft 437 kts 258°
2026-05-06 19:12 11.71892 -66.55459 35974 ft 438 kts 258°
2026-05-06 19:13 11.70651 -66.61538 35971 ft 437 kts 258°
2026-05-06 19:13 11.69412 -66.67605 35970 ft 437 kts 258°
2026-05-06 19:14 11.68170 -66.73678 35973 ft 437 kts 258°
2026-05-06 19:14 11.67139 -66.78714 35968 ft 437 kts 258°
2026-05-06 19:15 11.65691 -66.85778 35968 ft 437 kts 258°
2026-05-06 19:15 11.64650 -66.90854 35969 ft 437 kts 258°
2026-05-06 19:16 11.63406 -66.96911 35958 ft 435 kts 258°
2026-05-06 19:16 11.62172 -67.02911 35964 ft 436 kts 258°
2026-05-06 19:17 11.60929 -67.08950 35958 ft 435 kts 258°
2026-05-06 19:17 11.59683 -67.15000 35964 ft 435 kts 258°
2026-05-06 19:18 11.58437 -67.21042 35960 ft 436 kts 258°
2026-05-06 19:18 11.57188 -67.27087 35958 ft 435 kts 258°
2026-05-06 19:19 11.55941 -67.33121 35963 ft 436 kts 258°
2026-05-06 19:19 11.54700 -67.39119 35953 ft 435 kts 258°
2026-05-06 19:20 11.53448 -67.45159 35958 ft 435 kts 258°
2026-05-06 19:20 11.52198 -67.51190 35954 ft 435 kts 258°
2026-05-06 19:21 11.50945 -67.57224 35947 ft 435 kts 258°
2026-05-06 19:21 11.49685 -67.63283 35946 ft 436 kts 258°
2026-05-06 19:22 11.48431 -67.69310 35957 ft 437 kts 258°
2026-05-06 19:22 11.47167 -67.75380 35954 ft 437 kts 258°
2026-05-06 19:23 11.45905 -67.81431 35955 ft 437 kts 258°
2026-05-06 19:23 11.44641 -67.87492 35949 ft 437 kts 258°
2026-05-06 19:24 11.43374 -67.93555 35952 ft 437 kts 258°
2026-05-06 19:24 11.42112 -67.99590 35949 ft 437 kts 258°
2026-05-06 19:25 11.41047 -68.05683 35953 ft 437 kts 260°
2026-05-06 19:25 11.39985 -68.11780 35949 ft 437 kts 260°
2026-05-06 19:26 11.38915 -68.17895 35949 ft 437 kts 260°
2026-05-06 19:26 11.37847 -68.23991 35946 ft 437 kts 260°
2026-05-06 19:27 11.36784 -68.30056 35947 ft 437 kts 260°
2026-05-06 19:27 11.35714 -68.36143 35945 ft 437 kts 260°
2026-05-06 19:28 11.34642 -68.42240 35944 ft 437 kts 260°
2026-05-06 19:28 11.33567 -68.48350 35944 ft 437 kts 260°
2026-05-06 19:29 11.32494 -68.54438 35938 ft 437 kts 260°
2026-05-06 19:29 11.31424 -68.60497 35941 ft 437 kts 260°
2026-05-06 19:30 11.30347 -68.66592 35942 ft 437 kts 260°
2026-05-06 19:30 11.29268 -68.72690 35939 ft 437 kts 260°
2026-05-06 19:31 11.28189 -68.78778 35936 ft 437 kts 260°
2026-05-06 19:31 11.26567 -68.87923 35924 ft 437 kts 260°
2026-05-06 19:32 11.25485 -68.94007 35917 ft 436 kts 260°
2026-05-06 19:32 11.24408 -69.00064 35921 ft 438 kts 260°
2026-05-06 19:33 11.23321 -69.06169 35913 ft 437 kts 259°
2026-05-06 19:33 11.22233 -69.12267 35917 ft 438 kts 260°
2026-05-06 19:34 11.21142 -69.18377 35909 ft 438 kts 260°
2026-05-06 19:34 11.20050 -69.24485 35914 ft 440 kts 260°
2026-05-06 19:35 11.18962 -69.30564 35908 ft 439 kts 260°
2026-05-06 19:35 11.17864 -69.36689 35908 ft 439 kts 260°
2026-05-06 19:36 11.16766 -69.42813 35908 ft 439 kts 259°
2026-05-06 19:36 11.15666 -69.48935 35912 ft 439 kts 260°
2026-05-06 19:37 11.14566 -69.55052 35908 ft 439 kts 260°
2026-05-06 19:37 11.13467 -69.61150 35907 ft 439 kts 260°
2026-05-06 19:38 11.12365 -69.67263 35906 ft 438 kts 260°
2026-05-06 19:38 11.11264 -69.73368 35906 ft 439 kts 260°
2026-05-06 19:39 11.10162 -69.79460 35906 ft 438 kts 260°
2026-05-06 19:39 11.09058 -69.85567 35901 ft 439 kts 260°
2026-05-06 19:40 11.07961 -69.91624 35892 ft 436 kts 260°
2026-05-06 19:40 11.06855 -69.97729 35887 ft 436 kts 260°
2026-05-06 19:41 11.05636 -70.03763 35892 ft 437 kts 257°
2026-05-06 19:41 11.04265 -70.09796 35877 ft 436 kts 257°
2026-05-06 19:42 11.02911 -70.15828 35889 ft 438 kts 258°
2026-05-06 19:42 11.01559 -70.21849 35867 ft 436 kts 258°
2026-05-06 19:43 11.00209 -70.27856 35879 ft 437 kts 257°
2026-05-06 19:43 10.98855 -70.33873 35863 ft 438 kts 257°
2026-05-06 19:44 10.97498 -70.39899 35861 ft 436 kts 257°
2026-05-06 19:44 10.96137 -70.45937 35872 ft 438 kts 257°
2026-05-06 19:45 10.94778 -70.51959 35864 ft 436 kts 257°
2026-05-06 19:45 10.93411 -70.58011 35863 ft 441 kts 257°
2026-05-06 19:46 10.92030 -70.64116 35867 ft 443 kts 257°
2026-05-06 19:46 10.90658 -70.70180 35865 ft 442 kts 257°
2026-05-06 19:47 10.89276 -70.76279 35865 ft 442 kts 257°
2026-05-06 19:47 10.87894 -70.82375 35865 ft 442 kts 257°
2026-05-06 19:48 10.86507 -70.88488 35862 ft 442 kts 257°
2026-05-06 19:48 10.85121 -70.94589 35868 ft 443 kts 257°
2026-05-06 19:49 10.83732 -71.00699 35869 ft 443 kts 257°
2026-05-06 19:49 10.82345 -71.06793 35870 ft 443 kts 257°
2026-05-06 19:50 10.80961 -71.12865 35872 ft 443 kts 257°
2026-05-06 19:50 10.79565 -71.18988 35871 ft 443 kts 257°
2026-05-06 19:51 10.78171 -71.25093 35875 ft 443 kts 257°
2026-05-06 19:51 10.76779 -71.31187 35872 ft 443 kts 257°
2026-05-06 19:52 10.75391 -71.37254 35874 ft 443 kts 257°
2026-05-06 19:52 10.73995 -71.43354 35872 ft 443 kts 257°
2026-05-06 19:53 10.72596 -71.49458 35864 ft 444 kts 257°
2026-05-06 19:53 10.71193 -71.55575 35870 ft 445 kts 257°
2026-05-06 19:54 10.69782 -71.61724 35869 ft 446 kts 257°
2026-05-06 19:54 10.68368 -71.67875 35867 ft 446 kts 257°
2026-05-06 19:55 10.66964 -71.73980 35870 ft 446 kts 257°
2026-05-06 19:55 10.65548 -71.80130 35869 ft 446 kts 257°
2026-05-06 19:56 10.64132 -71.86276 35870 ft 446 kts 257°
2026-05-06 19:56 10.62713 -71.92432 35868 ft 447 kts 257°
2026-05-06 19:57 10.61291 -71.98590 35873 ft 448 kts 257°
2026-05-06 19:57 10.59867 -72.04750 35870 ft 448 kts 257°
2026-05-06 19:58 10.58452 -72.10871 35874 ft 448 kts 257°
2026-05-06 19:58 10.57024 -72.17038 35875 ft 448 kts 257°
2026-05-06 19:59 10.55596 -72.23200 35876 ft 448 kts 257°
2026-05-06 19:59 10.54170 -72.29348 35889 ft 448 kts 257°
2026-05-06 20:00 10.52739 -72.35510 35890 ft 448 kts 257°
2026-05-06 20:00 10.51308 -72.41670 35909 ft 448 kts 257°
2026-05-06 20:01 10.49883 -72.47798 35907 ft 448 kts 257°
2026-05-06 20:01 10.48451 -72.53949 35933 ft 448 kts 257°
2026-05-06 20:02 10.47258 -72.59069 35934 ft 448 kts 257°
2026-05-06 20:02 10.45824 -72.65219 35934 ft 447 kts 257°
2026-05-06 20:03 10.44390 -72.71366 35933 ft 447 kts 258°
2026-05-06 20:03 10.42953 -72.77515 35943 ft 447 kts 258°
2026-05-06 20:04 10.41526 -72.83625 35939 ft 447 kts 258°
2026-05-06 20:04 10.40089 -72.89766 35934 ft 446 kts 257°
2026-05-06 20:05 10.38681 -72.95926 35942 ft 446 kts 259°
2026-05-06 20:05 10.37398 -73.02103 35944 ft 448 kts 259°
2026-05-06 20:06 10.36099 -73.08295 35938 ft 448 kts 259°
2026-05-06 20:06 10.34806 -73.14449 35888 ft 448 kts 259°
2026-05-06 20:07 10.33503 -73.20648 35886 ft 448 kts 259°
2026-05-06 20:07 10.32201 -73.26831 35885 ft 448 kts 259°
2026-05-06 20:08 10.30896 -73.33025 35886 ft 448 kts 259°
2026-05-06 20:08 10.29589 -73.39221 35897 ft 448 kts 259°
2026-05-06 20:09 10.28280 -73.45422 35879 ft 449 kts 259°
2026-05-06 20:09 10.26974 -73.51604 35885 ft 449 kts 259°
2026-05-06 20:10 10.25664 -73.57793 35882 ft 448 kts 259°
2026-05-06 20:10 10.24352 -73.63990 35879 ft 448 kts 259°
2026-05-06 20:11 10.23049 -73.70139 35886 ft 448 kts 259°
2026-05-06 20:11 10.21737 -73.76325 35887 ft 448 kts 259°
2026-05-06 20:12 10.20423 -73.82509 35881 ft 448 kts 259°
2026-05-06 20:12 10.19106 -73.88703 35881 ft 448 kts 259°
2026-05-06 20:13 10.17788 -73.94900 35860 ft 448 kts 259°
2026-05-06 20:13 10.16471 -74.01083 35835 ft 449 kts 259°
2026-05-06 20:14 10.15155 -74.07254 35839 ft 450 kts 259°
2026-05-06 20:14 10.13829 -74.13470 35835 ft 450 kts 259°
2026-05-06 20:15 10.12501 -74.19685 35837 ft 450 kts 259°
2026-05-06 20:15 10.11176 -74.25886 35832 ft 450 kts 259°
2026-05-06 20:16 10.09845 -74.32104 35830 ft 450 kts 259°
2026-05-06 20:16 10.08522 -74.38281 35835 ft 450 kts 259°
2026-05-06 20:17 10.07192 -74.44484 35830 ft 449 kts 259°
2026-05-06 20:17 10.05862 -74.50678 35833 ft 450 kts 259°
2026-05-06 20:18 10.04530 -74.56880 35829 ft 449 kts 259°
2026-05-06 20:18 10.03203 -74.63052 35829 ft 449 kts 259°
2026-05-06 20:19 10.01869 -74.69249 35828 ft 449 kts 259°
2026-05-06 20:19 10.00535 -74.75440 35828 ft 449 kts 259°
2026-05-06 20:20 9.99199 -74.81641 35832 ft 449 kts 259°
2026-05-06 20:20 9.97863 -74.87830 35831 ft 449 kts 259°
2026-05-06 20:21 9.96549 -74.94028 35828 ft 449 kts 262°
2026-05-06 20:21 9.95611 -75.00283 35836 ft 449 kts 262°
2026-05-06 20:22 9.94642 -75.06494 35836 ft 449 kts 262°
2026-05-06 20:22 9.93659 -75.12745 35839 ft 448 kts 262°
2026-05-06 20:23 9.92676 -75.18990 35840 ft 448 kts 262°
2026-05-06 20:23 9.91693 -75.25230 35845 ft 448 kts 262°
2026-05-06 20:24 9.90707 -75.31473 35844 ft 448 kts 262°
2026-05-06 20:24 9.89720 -75.37722 35849 ft 448 kts 262°
2026-05-06 20:25 9.88731 -75.43971 35846 ft 448 kts 262°
2026-05-06 20:25 9.87749 -75.50174 35850 ft 449 kts 262°
2026-05-06 20:26 9.86757 -75.56425 35846 ft 449 kts 262°
2026-05-06 20:26 9.85763 -75.62684 35848 ft 449 kts 262°
2026-05-06 20:27 9.84769 -75.68939 35848 ft 449 kts 262°
2026-05-06 20:27 9.83780 -75.75150 35845 ft 449 kts 262°
2026-05-06 20:28 9.82782 -75.81414 35844 ft 450 kts 262°
2026-05-06 20:28 9.81780 -75.87689 35849 ft 450 kts 262°
2026-05-06 20:29 9.80779 -75.93959 35851 ft 450 kts 262°
2026-05-06 20:29 9.79784 -76.00175 35848 ft 450 kts 262°
2026-05-06 20:30 9.78277 -76.09587 35851 ft 450 kts 262°
2026-05-06 20:31 9.77271 -76.15856 35849 ft 450 kts 262°
2026-05-06 20:31 9.76266 -76.22111 35849 ft 450 kts 262°
2026-05-06 20:32 9.75258 -76.28381 35849 ft 450 kts 262°
2026-05-06 20:32 9.74250 -76.34639 35848 ft 450 kts 262°
2026-05-06 20:33 9.73246 -76.40870 35848 ft 450 kts 262°
2026-05-06 20:33 9.72236 -76.47129 35848 ft 450 kts 262°
2026-05-06 20:34 9.71226 -76.53379 35850 ft 450 kts 262°
2026-05-06 20:34 9.70213 -76.59638 35851 ft 450 kts 262°
2026-05-06 20:35 9.69200 -76.65896 35854 ft 450 kts 262°
2026-05-06 20:35 9.68185 -76.72151 35854 ft 450 kts 262°
2026-05-06 20:36 9.67169 -76.78414 35853 ft 450 kts 262°
2026-05-06 20:36 9.66158 -76.84629 35855 ft 450 kts 261°
2026-05-06 20:37 9.65141 -76.90881 35854 ft 449 kts 262°
2026-05-06 20:37 9.64124 -76.97126 35855 ft 449 kts 262°
2026-05-06 20:38 9.63106 -77.03368 35855 ft 449 kts 262°
2026-05-06 20:38 9.62084 -77.09625 35856 ft 449 kts 262°
2026-05-06 20:39 9.61063 -77.15870 35858 ft 449 kts 261°
2026-05-06 20:39 9.60042 -77.22107 35856 ft 449 kts 262°
2026-05-06 20:40 9.59021 -77.28341 35854 ft 449 kts 262°
2026-05-06 20:40 9.58002 -77.34555 35858 ft 449 kts 262°
2026-05-06 20:41 9.56994 -77.40658 35689 ft 428 kts 260°
2026-05-06 20:41 9.56131 -77.43530 35183 ft 427 kts 249°
2026-05-06 20:41 9.55042 -77.46347 34604 ft 428 kts 251°
2026-05-06 20:41 9.53986 -77.49157 34090 ft 427 kts 251°
2026-05-06 20:42 9.52924 -77.51961 33563 ft 426 kts 250°
2026-05-06 20:42 9.51863 -77.54756 33037 ft 425 kts 250°
2026-05-06 20:42 9.50803 -77.57548 32544 ft 422 kts 250°
2026-05-06 20:42 9.49751 -77.60314 32079 ft 420 kts 251°
2026-05-06 20:43 9.48705 -77.63066 31608 ft 418 kts 250°
2026-05-06 20:43 9.47672 -77.65782 31152 ft 416 kts 250°
2026-05-06 20:43 9.46633 -77.68514 30693 ft 415 kts 250°
2026-05-06 20:43 9.45595 -77.71241 30235 ft 414 kts 250°
2026-05-06 20:44 9.44565 -77.73947 29764 ft 413 kts 250°
2026-05-06 20:44 9.43533 -77.76660 29253 ft 411 kts 250°
2026-05-06 20:44 9.42505 -77.79361 28795 ft 409 kts 250°
2026-05-06 20:44 9.41485 -77.82038 28383 ft 406 kts 250°
2026-05-06 20:45 9.40473 -77.84693 27974 ft 403 kts 250°
2026-05-06 20:45 9.39466 -77.87336 27558 ft 401 kts 250°
2026-05-06 20:45 9.38462 -77.89971 27145 ft 399 kts 250°
2026-05-06 20:45 9.37466 -77.92581 26732 ft 397 kts 250°
2026-05-06 20:46 9.36473 -77.95186 26325 ft 395 kts 250°
2026-05-06 20:46 9.35498 -77.97741 25950 ft 394 kts 250°
2026-05-06 20:46 9.34511 -78.00331 25556 ft 393 kts 250°
2026-05-06 20:46 9.33527 -78.02907 25161 ft 392 kts 250°
2026-05-06 20:47 9.32545 -78.05480 24771 ft 391 kts 250°
2026-05-06 20:47 9.31561 -78.08058 24385 ft 391 kts 250°
2026-05-06 20:47 9.30582 -78.10620 24000 ft 391 kts 249°
2026-05-06 20:47 9.29602 -78.13185 23612 ft 390 kts 249°
2026-05-06 20:48 9.28622 -78.15751 23186 ft 390 kts 249°
2026-05-06 20:48 9.27644 -78.18310 22756 ft 389 kts 249°
2026-05-06 20:48 9.26790 -78.20865 22294 ft 389 kts 258°
2026-05-06 20:48 9.26213 -78.23526 21916 ft 386 kts 257°
2026-05-06 20:49 9.25620 -78.26174 21596 ft 383 kts 257°
2026-05-06 20:49 9.25030 -78.28800 21206 ft 382 kts 257°
2026-05-06 20:49 9.24443 -78.31422 20827 ft 380 kts 257°
2026-05-06 20:49 9.23859 -78.34022 20445 ft 379 kts 257°
2026-05-06 20:50 9.23473 -78.35744 20202 ft 378 kts 257°
2026-05-06 20:50 9.22888 -78.38344 19810 ft 377 kts 257°
2026-05-06 20:50 9.22310 -78.40923 19433 ft 374 kts 257°
2026-05-06 20:50 9.21734 -78.43484 19071 ft 371 kts 257°
2026-05-06 20:51 9.21168 -78.46005 18713 ft 366 kts 257°
2026-05-06 20:51 9.20422 -78.49320 18224 ft 362 kts 256°
2026-05-06 20:51 9.20046 -78.50993 17950 ft 360 kts 256°
2026-05-06 20:51 9.19493 -78.53449 17556 ft 356 kts 256°
2026-05-06 20:52 9.18949 -78.55867 17189 ft 351 kts 256°
2026-05-06 20:52 9.18408 -78.58270 16833 ft 347 kts 256°
2026-05-06 20:52 9.17877 -78.60631 16570 ft 340 kts 256°
2026-05-06 20:52 9.17355 -78.62945 16256 ft 334 kts 256°
2026-05-06 20:53 9.16841 -78.65229 15931 ft 331 kts 256°
2026-05-06 20:53 9.16330 -78.67495 15598 ft 330 kts 256°
2026-05-06 20:53 9.15821 -78.69753 15271 ft 328 kts 256°
2026-05-06 20:53 9.15321 -78.71970 14948 ft 327 kts 256°
2026-05-06 20:54 9.14815 -78.74213 14617 ft 326 kts 256°
2026-05-06 20:54 9.14310 -78.76446 14286 ft 325 kts 256°
2026-05-06 20:54 9.13809 -78.78669 13960 ft 324 kts 256°
2026-05-06 20:54 9.13306 -78.80893 13629 ft 324 kts 255°
2026-05-06 20:55 9.12805 -78.83114 13252 ft 323 kts 256°
2026-05-06 20:55 9.12304 -78.85332 12906 ft 322 kts 256°
2026-05-06 20:55 9.11807 -78.87529 12576 ft 320 kts 256°
2026-05-06 20:55 9.11312 -78.89720 12245 ft 318 kts 256°
2026-05-06 20:56 9.10826 -78.91869 11926 ft 316 kts 256°
2026-05-06 20:56 9.10335 -78.94033 11601 ft 315 kts 256°
2026-05-06 20:56 9.09851 -78.96178 11285 ft 313 kts 256°
2026-05-06 20:56 9.09368 -78.98310 10965 ft 311 kts 256°
2026-05-06 20:57 9.08897 -79.00390 10661 ft 310 kts 256°
2026-05-06 20:57 9.08418 -79.02508 10341 ft 309 kts 256°
2026-05-06 20:57 9.07942 -79.04607 10098 ft 305 kts 256°
2026-05-06 20:57 9.07477 -79.06661 9874 ft 300 kts 256°
2026-05-06 20:58 9.07008 -79.08728 9538 ft 299 kts 257°
2026-05-06 20:58 9.06543 -79.10780 9195 ft 298 kts 256°
2026-05-06 20:58 9.06081 -79.12820 8867 ft 297 kts 256°
2026-05-06 20:58 9.05620 -79.14852 8568 ft 295 kts 256°
2026-05-06 20:59 9.05163 -79.16864 8271 ft 293 kts 257°
2026-05-06 20:59 9.04715 -79.18840 7964 ft 291 kts 257°
2026-05-06 20:59 9.04259 -79.20847 7662 ft 289 kts 257°
2026-05-06 20:59 9.03816 -79.22795 7363 ft 288 kts 257°
2026-05-06 21:00 9.03371 -79.24757 7076 ft 286 kts 257°
2026-05-06 21:00 9.02921 -79.26739 6763 ft 285 kts 257°
2026-05-06 21:00 9.02483 -79.28664 6473 ft 283 kts 258°
2026-05-06 21:00 9.01955 -79.30560 6391 ft 279 kts 244°
2026-05-06 21:01 9.00784 -79.32110 6366 ft 279 kts 219°
2026-05-06 21:01 8.99223 -79.33283 6402 ft 279 kts 214°
2026-05-06 21:01 8.97633 -79.34423 6400 ft 280 kts 214°
2026-05-06 21:01 8.96030 -79.35547 6378 ft 281 kts 213°
2026-05-06 21:02 8.94417 -79.36671 6374 ft 282 kts 213°
2026-05-06 21:02 8.92807 -79.37788 6372 ft 279 kts 213°
2026-05-06 21:02 8.91211 -79.38883 6334 ft 277 kts 213°
2026-05-06 21:02 8.89636 -79.39965 6358 ft 277 kts 213°
2026-05-06 21:03 8.88058 -79.41049 6383 ft 278 kts 213°
2026-05-06 21:03 8.86458 -79.42149 6217 ft 281 kts 213°
2026-05-06 21:03 8.84808 -79.43276 5363 ft 293 kts 213°
2026-05-06 21:03 8.83068 -79.44444 4551 ft 305 kts 214°
2026-05-06 21:04 8.81596 -79.45971 3989 ft 305 kts 243°
2026-05-06 21:04 8.81121 -79.47977 3798 ft 287 kts 275°
2026-05-06 21:04 8.81648 -79.49815 3728 ft 262 kts 300°
2026-05-06 21:04 8.82627 -79.51257 3695 ft 238 kts 314°
2026-05-06 21:05 8.83863 -79.52269 3540 ft 223 kts 333°
2026-05-06 21:05 8.85311 -79.52764 3313 ft 218 kts 352°
2026-05-06 21:05 8.86790 -79.52760 3133 ft 219 kts
2026-05-06 21:05 8.88221 -79.52288 3028 ft 219 kts 27°
2026-05-06 21:06 8.89405 -79.51405 3059 ft 203 kts 45°
2026-05-06 21:06 8.90185 -79.50289 3165 ft 188 kts 58°
2026-05-06 21:06 8.90913 -79.49244 3078 ft 180 kts 37°
2026-05-06 21:06 8.91902 -79.48550 3044 ft 176 kts 33°
2026-05-06 21:07 8.92915 -79.47854 3127 ft 175 kts 32°
2026-05-06 21:07 8.93895 -79.47196 2758 ft 174 kts 32°
2026-05-06 21:07 8.94914 -79.46526 2334 ft 175 kts 32°
2026-05-06 21:07 8.95924 -79.45868 2113 ft 172 kts 35°
2026-05-06 21:08 8.96861 -79.45233 1754 ft 173 kts 32°
2026-05-06 21:08 8.97595 -79.44768 1622 ft 170 kts 32°
2026-05-06 21:08 8.98308 -79.44317 1664 ft 173 kts 32°
2026-05-06 21:08 8.99017 -79.43867 1716 ft 176 kts 32°
2026-05-06 21:09 8.99694 -79.43438 1747 ft 176 kts 32°
2026-05-06 21:09 9.00347 -79.43024 1813 ft 169 kts 32°
2026-05-06 21:09 9.00957 -79.42643 1815 ft 157 kts 32°
2026-05-06 21:09 9.01526 -79.42286 1783 ft 146 kts 31°
2026-05-06 21:10 9.02058 -79.41953 1659 ft 138 kts 31°
2026-05-06 21:10 9.02568 -79.41632 1426 ft 135 kts 31°
2026-05-06 21:10 9.03088 -79.41306 1129 ft 139 kts 32°
2026-05-06 21:10 9.03606 -79.40986 1007 ft 138 kts 30°
2026-05-06 21:11 9.04114 -79.40660 960 ft 139 kts 30°
2026-05-06 21:11 9.04620 -79.40330 925 ft 142 kts 30°
2026-05-06 21:11 9.05116 -79.40005 769 ft 147 kts 33°
2026-05-06 21:11 9.05622 -79.39678 566 ft 151 kts 29°
2026-05-06 21:12 9.05861 -79.39547 471 ft 151 kts 28°
2026-05-06 21:12 9.06422 -79.39248 300 ft 151 kts 27°
2026-05-06 21:12 9.07015 -79.38901 165 ft 158 kts 29°
2026-05-06 21:12 9.07573 -79.38551 71 ft 152 kts 32°
2026-05-06 21:13 9.08138 -79.38216 49 ft 132 kts 30°
2026-05-06 21:13 9.08574 -79.37954 49 ft 86 kts 30°
2026-05-06 21:13 9.08816 -79.37808 50 ft 28 kts 32°
2026-05-06 21:13 9.08837 -79.37766 49 ft 6 kts 116°
2026-05-06 21:14 9.08813 -79.37733 45 ft 13 kts 126°
2026-05-06 21:14 9.08775 -79.37669 37 ft 20 kts 120°
2026-05-06 21:14 9.08732 -79.37595 34 ft 17 kts 123°
2026-05-06 21:14 9.08679 -79.37573 33 ft 7 kts 207°
2026-05-06 21:15 9.08647 -79.37593 33 ft 10 kts 212°
2026-05-06 21:15 9.08594 -79.37627 33 ft 18 kts 211°
2026-05-06 21:15 9.08516 -79.37675 34 ft 22 kts 216°
2026-05-06 21:15 9.08446 -79.37742 34 ft 23 kts 225°
2026-05-06 21:16 9.08375 -79.37814 34 ft 22 kts 225°
2026-05-06 21:16 9.08306 -79.37884 35 ft 23 kts 225°
2026-05-06 21:16 9.08235 -79.37960 36 ft 24 kts 229°
2026-05-06 21:16 9.08162 -79.38025 36 ft 24 kts 216°
2026-05-06 21:17 9.08085 -79.38074 36 ft 25 kts 211°
2026-05-06 21:17 9.07992 -79.38131 37 ft 26 kts 211°
2026-05-06 21:17 9.07893 -79.38189 37 ft 26 kts 208°
2026-05-06 21:17 9.07795 -79.38247 37 ft 27 kts 209°
2026-05-06 21:18 9.07691 -79.38308 37 ft 28 kts 212°
2026-05-06 21:18 9.07590 -79.38371 37 ft 29 kts 210°
2026-05-06 21:18 9.07491 -79.38433 37 ft 27 kts 212°
2026-05-06 21:18 9.07391 -79.38495 37 ft 28 kts 209°
2026-05-06 21:19 9.07283 -79.38556 37 ft 29 kts 204°
2026-05-06 21:19 9.07177 -79.38605 34 ft 11 kts 200°
2026-05-06 21:19 9.07150 -79.38593 35 ft 4 kts 123°
2026-05-06 21:19 9.07145 -79.38584 34 ft 0 kts 123°